Weather History for Cleveland Burke, OH

Change the Weather History Date:

Sunday, March 23, 2014

  Actual Average Record
Temperature  
Mean Temperature 26 °F -  
Max Temperature 32 °F 45 °F 64 °F (2012)
Min Temperature 19 °F 32 °F 19 °F (2008)
Degree Days  
Heating Degree Days 40    
Moisture  
Dew Point 15 °F    
Average Humidity 73    
Maximum Humidity 93    
Minimum Humidity 63    
Precipitation  
Precipitation 0.00 in - - ()
Sea Level Pressure  
Sea Level Pressure 30.29 in    
Wind  
Wind Speed 13 mph (North)    
Max Wind Speed 18 mph    
Max Gust Speed 25 mph    
Visibility 9 miles    
Events Snow    
Averages and records for this station are not official NWS values.
T = Trace of Precipitation, MM = Missing Value Source: NWS Daily Summary

Daily Weather History Graph

Daily Weather History Graph

Search for Another Location

Airport:

Trip Planner

Search our weather history database for the weather conditions in past years. The results will help you decide how hot, cold, wet, or windy it might be!

Date:

Astronomy

Mar. 23, 2014 Rise Set
Actual Time 7:24 AM EDT 7:42 PM EDT
Civil Twilight 6:57 AM EDT 8:09 PM EDT
Nautical Twilight 6:24 AM EDT 8:42 PM EDT
Astronomical Twilight 5:51 AM EDT 9:15 PM EDT
Moon 2:01 AM EDT (3/23) 12:01 PM EDT (3/23)
Length of Visible Light 13h 12m
Length of Day
12h 17m
Waning Gibbous, 55% of the Moon is Illuminated
Mar 23
Waning Gibbous
Mar 23
Last Quarter
Mar 30
New
Apr 7
First Quarter
Apr 15
Full

Hourly Weather History & Observations

Time (EDT) Temp. Windchill Dew Point Humidity Pressure Visibility Wind Dir Wind Speed Gust Speed Precip Events Conditions
12:53 AM 32.0 °F 22.5 °F 28.9 °F 88% 30.18 in 10.0 mi North 12.7 mph - N/A   Overcast
1:48 AM 30.2 °F 20.8 °F 28.4 °F 93% 30.18 in 10.0 mi North 11.5 mph - N/A   Overcast
1:53 AM 30.9 °F 20.2 °F 28.0 °F 89% 30.20 in 10.0 mi North 15.0 mph 20.7 mph N/A   Overcast
2:53 AM 28.9 °F 16.9 °F 21.0 °F 72% 30.22 in 10.0 mi North 17.3 mph - N/A   Overcast
3:18 AM 28.4 °F 17.0 °F 21.2 °F 74% 30.20 in 10.0 mi North 15.0 mph 23.0 mph N/A   Overcast
3:28 AM 28.4 °F 16.6 °F 21.2 °F 74% 30.21 in 10.0 mi North 16.1 mph - N/A   Overcast
3:53 AM 27.0 °F 15.2 °F 21.0 °F 78% 30.23 in 10.0 mi North 15.0 mph 20.7 mph N/A   Overcast
4:22 AM 26.6 °F 14.7 °F 17.6 °F 69% 30.21 in 10.0 mi North 15.0 mph - N/A   Overcast
4:32 AM 26.6 °F 15.2 °F 17.6 °F 69% 30.21 in 10.0 mi North 13.8 mph - N/A   Overcast
4:53 AM 26.1 °F 15.0 °F 17.1 °F 69% 30.24 in 10.0 mi North 12.7 mph - N/A   Overcast
5:12 AM 26.6 °F 15.2 °F 17.6 °F 69% 30.22 in 10.0 mi North 13.8 mph - N/A   Overcast
5:41 AM 24.8 °F 12.9 °F 19.4 °F 80% 30.23 in 10.0 mi NNE 13.8 mph - N/A   Overcast
5:53 AM 25.0 °F 13.1 °F 19.0 °F 78% 30.25 in 10.0 mi NNE 13.8 mph - N/A   Overcast
6:53 AM 23.0 °F 9.2 °F 17.1 °F 78% 30.27 in 10.0 mi North 17.3 mph - N/A   Overcast
7:46 AM 21.2 °F 7.3 °F 15.8 °F 80% 30.27 in 10.0 mi North 16.1 mph 24.2 mph N/A Snow Light Snow
7:53 AM 21.9 °F 7.8 °F 15.1 °F 75% 30.30 in 9.0 mi North 17.3 mph - N/A Snow Light Snow
8:29 AM 21.2 °F 6.4 °F 14.0 °F 74% 30.29 in 8.0 mi North 18.4 mph 25.3 mph N/A Snow Light Snow
8:41 AM 21.2 °F 7.8 °F 14.0 °F 74% 30.29 in 9.0 mi North 15.0 mph - N/A Snow Light Snow
8:53 AM 19.9 °F 5.2 °F 12.9 °F 74% 30.32 in 10.0 mi North 17.3 mph - N/A   Overcast
9:53 AM 21.0 °F 7.1 °F 12.0 °F 68% 30.32 in 10.0 mi North 16.1 mph - N/A   Mostly Cloudy
10:14 AM 21.2 °F 8.9 °F 12.2 °F 68% 30.31 in 10.0 mi NNE 12.7 mph - N/A   Mostly Cloudy
10:53 AM 19.9 °F 8.6 °F 12.0 °F 71% 30.34 in 9.0 mi North 10.4 mph - N/A   Overcast
11:37 AM 21.2 °F 10.9 °F 12.2 °F 68% 30.32 in 10.0 mi North 9.2 mph - N/A   Overcast
11:53 AM 21.0 °F 9.9 °F 12.0 °F 68% 30.35 in 10.0 mi North 10.4 mph - N/A   Overcast
12:32 PM 21.2 °F 10.9 °F 15.8 °F 80% 30.32 in 3.0 mi NNW 9.2 mph - N/A Snow Light Snow
12:53 PM 21.0 °F 11.4 °F 16.0 °F 81% 30.34 in 5.0 mi North 8.1 mph - N/A Snow Light Snow
1:19 PM 21.2 °F 11.7 °F 14.0 °F 74% 30.31 in 10.0 mi NW 8.1 mph - N/A   Overcast
1:53 PM 21.9 °F 9.8 °F 12.9 °F 68% 30.33 in 10.0 mi NW 12.7 mph - N/A   Mostly Cloudy
2:37 PM 21.2 °F 10.1 °F 14.0 °F 74% 30.30 in 10.0 mi North 10.4 mph - N/A   Overcast
2:53 PM 21.0 °F 8.6 °F 14.0 °F 74% 30.32 in 9.0 mi NW 12.7 mph 19.6 mph N/A Snow Light Snow
3:04 PM 21.2 °F 9.5 °F 14.0 °F 74% 30.29 in 6.0 mi NW 11.5 mph - N/A Snow Light Snow
3:15 PM 21.2 °F 8.9 °F 12.2 °F 68% 30.29 in 8.0 mi NW 12.7 mph 21.9 mph N/A Snow Light Snow
3:24 PM 21.2 °F 8.9 °F 14.0 °F 74% 30.29 in 9.0 mi WNW 12.7 mph - N/A Snow Light Snow
3:38 PM 21.2 °F 8.9 °F 12.2 °F 68% 30.29 in 10.0 mi WNW 12.7 mph - N/A   Overcast
3:53 PM 21.0 °F 9.9 °F 12.0 °F 68% 30.32 in 10.0 mi WNW 10.4 mph - N/A   Overcast
4:03 PM 21.2 °F 10.1 °F 12.2 °F 68% 30.29 in 10.0 mi WNW 10.4 mph - N/A   Overcast
4:21 PM 21.2 °F 10.1 °F 12.2 °F 68% 30.29 in 10.0 mi WNW 10.4 mph - N/A   Overcast
4:53 PM 21.9 °F 10.4 °F 12.0 °F 66% 30.32 in 10.0 mi NW 11.5 mph - N/A   Mostly Cloudy
5:14 PM 21.2 °F 11.7 °F 12.2 °F 68% 30.29 in 10.0 mi NW 8.1 mph - N/A   Scattered Clouds
5:53 PM 21.9 °F 12.5 °F 14.0 °F 72% 30.33 in 10.0 mi North 8.1 mph - N/A   Mostly Cloudy
6:53 PM 21.0 °F 16.2 °F 12.0 °F 68% 30.34 in 10.0 mi North 3.5 mph - N/A   Overcast
7:53 PM 21.0 °F 16.2 °F 12.0 °F 68% 30.34 in 10.0 mi North 3.5 mph - N/A   Overcast
8:53 PM 21.0 °F 16.2 °F 10.9 °F 65% 30.35 in 10.0 mi NNW 3.5 mph - N/A   Mostly Cloudy
9:53 PM 21.9 °F 17.2 °F 10.9 °F 63% 30.36 in 10.0 mi NNW 3.5 mph - N/A   Overcast
10:53 PM 21.0 °F 14.6 °F 12.0 °F 68% 30.36 in 10.0 mi NNW 4.6 mph - N/A   Overcast
11:33 PM 19.4 °F 14.3 °F 14.0 °F 80% 30.34 in 4.0 mi NNE 3.5 mph - N/A Snow Light Snow
11:53 PM 19.9 °F - 15.1 °F 81% 30.37 in 6.0 mi Calm Calm - N/A Snow Light Snow